contact:dominique.lefevre@mio.osupytheas.fr, maurice.libes@osupytheas.fr, didier.mallarino@osupytheas.fr
Project:EMSO http://www.emso-fr.org/EMSO-France
Depth: 2436.0 m
Title:EMSO Ligure Ouest : Data MII capteur MICROCAT
DateTime_Computer,Latitude,Longitude,Temperature,Conductivity,Pressure,DateTime_Instrument
DateTime_Computer,Latitude,Longitude,degC,S m-1,dbar,DateTime_Instrument
2019-08-19T00:00:19Z,42.805,6.029,13.2956,4.59954,2469.933,2019-8-19T02:00:40Z
2019-08-19T00:03:22Z,42.805,6.029,13.2952,4.59954,2469.947,2019-8-19T02:03:43Z
2019-08-19T00:06:25Z,42.805,6.029,13.2955,4.59955,2469.96,2019-8-19T02:06:46Z
2019-08-19T00:09:29Z,42.805,6.029,13.2952,4.59954,2469.96,2019-8-19T02:09:50Z
2019-08-19T00:12:32Z,42.805,6.029,13.2955,4.59954,2469.923,2019-8-19T02:12:53Z
2019-08-19T00:15:35Z,42.805,6.029,13.2956,4.59956,2469.923,2019-8-19T02:15:56Z
2019-08-19T00:18:38Z,42.805,6.029,13.2955,4.59955,2469.97,2019-8-19T02:18:59Z
2019-08-19T00:21:41Z,42.805,6.029,13.2955,4.59956,2469.96,2019-8-19T02:22:02Z
2019-08-19T00:24:44Z,42.805,6.029,13.2956,4.59954,2469.923,2019-8-19T02:25:05Z
2019-08-19T00:27:48Z,42.805,6.029,13.2954,4.59961,2469.89,2019-8-19T02:28:09Z
2019-08-19T00:30:51Z,42.805,6.029,13.2957,4.59953,2469.914,2019-8-19T02:31:12Z
2019-08-19T00:33:54Z,42.805,6.029,13.2955,4.59955,2469.9,2019-8-19T02:34:15Z
2019-08-19T00:36:57Z,42.805,6.029,13.2954,4.59955,2469.9,2019-8-19T02:37:18Z
2019-08-19T00:40:01Z,42.805,6.029,13.2955,4.59953,2469.9,2019-8-19T02:40:22Z
2019-08-19T00:43:04Z,42.805,6.029,13.2955,4.59954,2469.947,2019-8-19T02:43:25Z
2019-08-19T00:46:07Z,42.805,6.029,13.2958,4.59953,2469.9,2019-8-19T02:46:28Z
2019-08-19T00:49:10Z,42.805,6.029,13.2953,4.59956,2469.914,2019-8-19T02:49:31Z
2019-08-19T00:52:14Z,42.805,6.029,13.2956,4.59955,2469.923,2019-8-19T02:52:35Z
2019-08-19T00:55:17Z,42.805,6.029,13.2958,4.59956,2469.876,2019-8-19T02:55:38Z
2019-08-19T00:58:20Z,42.805,6.029,13.2958,4.59959,2469.9,2019-8-19T02:58:41Z
2019-08-19T01:01:24Z,42.805,6.029,13.2954,4.59954,2469.914,2019-8-19T03:01:45Z
2019-08-19T01:04:27Z,42.805,6.029,13.2953,4.59959,2469.96,2019-8-19T03:04:48Z
2019-08-19T01:07:30Z,42.805,6.029,13.2955,4.59954,2469.9,2019-8-19T03:07:51Z
2019-08-19T01:10:33Z,42.805,6.029,13.2952,4.59953,2469.876,2019-8-19T03:10:54Z
2019-08-19T01:13:36Z,42.805,6.029,13.2956,4.59954,2469.914,2019-8-19T03:13:57Z
2019-08-19T01:16:40Z,42.805,6.029,13.2957,4.59954,2469.89,2019-8-19T03:17:01Z
2019-08-19T01:19:43Z,42.805,6.029,13.2961,4.59954,2469.853,2019-8-19T03:20:04Z
2019-08-19T01:22:46Z,42.805,6.029,13.2958,4.59966,2469.89,2019-8-19T03:23:07Z
2019-08-19T01:25:49Z,42.805,6.029,13.2954,4.59958,2469.914,2019-8-19T03:26:10Z
2019-08-19T01:28:52Z,42.805,6.029,13.2959,4.59954,2469.876,2019-8-19T03:29:13Z
2019-08-19T01:31:56Z,42.805,6.029,13.2961,4.59954,2469.89,2019-8-19T03:32:17Z
2019-08-19T01:34:59Z,42.805,6.029,13.2956,4.59955,2469.89,2019-8-19T03:35:20Z
2019-08-19T01:38:02Z,42.805,6.029,13.2957,4.59964,2469.89,2019-8-19T03:38:23Z
2019-08-19T01:41:05Z,42.805,6.029,13.2954,4.59952,2469.937,2019-8-19T03:41:26Z
2019-08-19T01:44:08Z,42.805,6.029,13.2958,4.59952,2469.9,2019-8-19T03:44:29Z
2019-08-19T01:47:12Z,42.805,6.029,13.2959,4.59954,2469.914,2019-8-19T03:47:33Z
2019-08-19T01:50:15Z,42.805,6.029,13.2953,4.59953,2469.853,2019-8-19T03:50:36Z
2019-08-19T01:53:18Z,42.805,6.029,13.2958,4.59955,2469.876,2019-8-19T03:53:39Z
2019-08-19T01:56:21Z,42.805,6.029,13.2958,4.59953,2469.914,2019-8-19T03:56:42Z
2019-08-19T01:59:24Z,42.805,6.029,13.2957,4.59954,2469.876,2019-8-19T03:59:45Z
2019-08-19T02:02:27Z,42.805,6.029,13.2956,4.59958,2469.89,2019-8-19T04:02:48Z
2019-08-19T02:05:31Z,42.805,6.029,13.2950,4.59952,2469.853,2019-8-19T04:05:52Z
2019-08-19T02:08:34Z,42.805,6.029,13.2956,4.59954,2469.876,2019-8-19T04:08:55Z
2019-08-19T02:11:37Z,42.805,6.029,13.2957,4.59952,2469.853,2019-8-19T04:11:58Z
2019-08-19T02:14:40Z,42.805,6.029,13.2955,4.59956,2469.853,2019-8-19T04:15:01Z
2019-08-19T02:17:43Z,42.805,6.029,13.2955,4.59953,2469.89,2019-8-19T04:18:04Z
2019-08-19T02:20:47Z,42.805,6.029,13.2956,4.59954,2469.876,2019-8-19T04:21:08Z
2019-08-19T02:23:50Z,42.805,6.029,13.2959,4.59954,2469.853,2019-8-19T04:24:11Z
2019-08-19T02:26:53Z,42.805,6.029,13.2954,4.59953,2469.844,2019-8-19T04:27:14Z
2019-08-19T02:29:56Z,42.805,6.029,13.2956,4.59956,2469.876,2019-8-19T04:30:17Z
2019-08-19T02:32:59Z,42.805,6.029,13.2953,4.59952,2469.853,2019-8-19T04:33:20Z
2019-08-19T02:36:03Z,42.805,6.029,13.2953,4.59952,2469.876,2019-8-19T04:36:24Z
2019-08-19T02:39:06Z,42.805,6.029,13.2957,4.59953,2469.844,2019-8-19T04:39:27Z
2019-08-19T02:42:09Z,42.805,6.029,13.2955,4.59953,2469.867,2019-8-19T04:42:30Z
2019-08-19T02:45:12Z,42.805,6.029,13.2953,4.59953,2469.876,2019-8-19T04:45:33Z
2019-08-19T02:48:15Z,42.805,6.029,13.2956,4.59953,2469.844,2019-8-19T04:48:36Z
2019-08-19T02:51:19Z,42.805,6.029,13.2954,4.59951,2469.83,2019-8-19T04:51:40Z
2019-08-19T02:54:22Z,42.805,6.029,13.2957,4.59952,2469.853,2019-8-19T04:54:43Z
2019-08-19T02:57:25Z,42.805,6.029,13.2953,4.59960,2469.83,2019-8-19T04:57:46Z
2019-08-19T03:00:28Z,42.805,6.029,13.2957,4.59952,2469.83,2019-8-19T05:00:49Z
2019-08-19T03:03:31Z,42.805,6.029,13.2954,4.59954,2469.89,2019-8-19T05:03:52Z
2019-08-19T03:06:35Z,42.805,6.029,13.2953,4.59956,2469.844,2019-8-19T05:06:56Z
2019-08-19T03:09:38Z,42.805,6.029,13.2956,4.59954,2469.83,2019-8-19T05:09:59Z
2019-08-19T03:12:41Z,42.805,6.029,13.2958,4.59957,2469.83,2019-8-19T05:13:02Z
2019-08-19T03:15:44Z,42.805,6.029,13.2956,4.59954,2469.83,2019-8-19T05:16:05Z
2019-08-19T03:18:47Z,42.805,6.029,13.2957,4.59959,2469.83,2019-8-19T05:19:08Z
2019-08-19T03:21:51Z,42.805,6.029,13.2960,4.59954,2469.853,2019-8-19T05:22:12Z
2019-08-19T03:24:54Z,42.805,6.029,13.2957,4.59953,2469.844,2019-8-19T05:25:15Z
2019-08-19T03:27:57Z,42.805,6.029,13.2957,4.59952,2469.844,2019-8-19T05:28:18Z
2019-08-19T03:31:00Z,42.805,6.029,13.2957,4.59954,2469.867,2019-8-19T05:31:21Z
2019-08-19T03:34:03Z,42.805,6.029,13.2956,4.59953,2469.83,2019-8-19T05:34:24Z
2019-08-19T03:37:07Z,42.805,6.029,13.2954,4.59951,2469.844,2019-8-19T05:37:28Z
2019-08-19T03:40:10Z,42.805,6.029,13.2951,4.59951,2469.83,2019-8-19T05:40:31Z
2019-08-19T03:43:13Z,42.805,6.029,13.2955,4.59952,2469.83,2019-8-19T05:43:34Z
2019-08-19T03:46:16Z,42.805,6.029,13.2954,4.59952,2469.867,2019-8-19T05:46:37Z
2019-08-19T03:49:19Z,42.805,6.029,13.2957,4.59954,2469.867,2019-8-19T05:49:40Z
2019-08-19T03:52:22Z,42.805,6.029,13.2953,4.59953,2469.821,2019-8-19T05:52:43Z
2019-08-19T03:55:26Z,42.805,6.029,13.2957,4.59953,2469.83,2019-8-19T05:55:47Z
2019-08-19T03:58:29Z,42.805,6.029,13.2959,4.59952,2469.853,2019-8-19T05:58:50Z
2019-08-19T04:01:32Z,42.805,6.029,13.2957,4.59953,2469.83,2019-8-19T06:01:53Z
2019-08-19T04:04:35Z,42.805,6.029,13.2956,4.59952,2469.83,2019-8-19T06:04:56Z
2019-08-19T04:07:38Z,42.805,6.029,13.2955,4.59953,2469.876,2019-8-19T06:07:59Z
2019-08-19T04:10:42Z,42.805,6.029,13.2954,4.59951,2469.83,2019-8-19T06:11:03Z
2019-08-19T04:13:45Z,42.805,6.029,13.2953,4.59956,2469.867,2019-8-19T06:14:06Z
2019-08-19T04:16:48Z,42.805,6.029,13.2953,4.59952,2469.83,2019-8-19T06:17:09Z
2019-08-19T04:19:51Z,42.805,6.029,13.2955,4.59952,2469.844,2019-8-19T06:20:12Z
2019-08-19T04:22:54Z,42.805,6.029,13.2957,4.59956,2469.867,2019-8-19T06:23:15Z
2019-08-19T04:25:57Z,42.805,6.029,13.2955,4.59952,2469.853,2019-8-19T06:26:18Z
2019-08-19T04:29:01Z,42.805,6.029,13.2951,4.59952,2469.867,2019-8-19T06:29:22Z
2019-08-19T04:32:04Z,42.805,6.029,13.2955,4.59952,2469.83,2019-8-19T06:32:25Z
2019-08-19T04:35:07Z,42.805,6.029,13.2955,4.59952,2469.83,2019-8-19T06:35:28Z
2019-08-19T04:38:10Z,42.805,6.029,13.2954,4.59953,2469.867,2019-8-19T06:38:31Z
2019-08-19T04:41:13Z,42.805,6.029,13.2957,4.59954,2469.844,2019-8-19T06:41:34Z
2019-08-19T04:44:17Z,42.805,6.029,13.2954,4.59952,2469.853,2019-8-19T06:44:38Z
2019-08-19T04:47:20Z,42.805,6.029,13.2954,4.59954,2469.867,2019-8-19T06:47:41Z
2019-08-19T04:50:23Z,42.805,6.029,13.2954,4.59953,2469.806,2019-8-19T06:50:44Z
2019-08-19T04:53:26Z,42.805,6.029,13.2957,4.59952,2469.853,2019-8-19T06:53:47Z
2019-08-19T04:56:29Z,42.805,6.029,13.2953,4.59953,2469.867,2019-8-19T06:56:50Z
2019-08-19T04:59:33Z,42.805,6.029,13.2955,4.59952,2469.853,2019-8-19T06:59:54Z
2019-08-19T05:02:36Z,42.805,6.029,13.2954,4.59951,2469.853,2019-8-19T07:02:57Z
2019-08-19T05:05:39Z,42.805,6.029,13.2958,4.59952,2469.867,2019-8-19T07:06:00Z
2019-08-19T05:08:42Z,42.805,6.029,13.2957,4.59951,2469.83,2019-8-19T07:09:03Z
2019-08-19T05:11:46Z,42.805,6.029,13.2957,4.59961,2469.853,2019-8-19T07:12:07Z
2019-08-19T05:14:49Z,42.805,6.029,13.2957,4.59956,2469.83,2019-8-19T07:15:10Z
2019-08-19T05:17:52Z,42.805,6.029,13.2952,4.59953,2469.83,2019-8-19T07:18:13Z
2019-08-19T05:20:55Z,42.805,6.029,13.2952,4.59951,2469.876,2019-8-19T07:21:16Z
2019-08-19T05:23:59Z,42.805,6.029,13.2953,4.59953,2469.89,2019-8-19T07:24:20Z
2019-08-19T05:27:02Z,42.805,6.029,13.2952,4.59954,2469.876,2019-8-19T07:27:23Z
2019-08-19T05:30:05Z,42.805,6.029,13.2954,4.59952,2469.876,2019-8-19T07:30:26Z
2019-08-19T05:33:08Z,42.805,6.029,13.2954,4.59953,2469.914,2019-8-19T07:33:29Z
2019-08-19T05:36:11Z,42.805,6.029,13.2956,4.59952,2469.853,2019-8-19T07:36:32Z
2019-08-19T05:39:15Z,42.805,6.029,13.2957,4.59951,2469.853,2019-8-19T07:39:36Z
2019-08-19T05:42:18Z,42.805,6.029,13.2956,4.59964,2469.876,2019-8-19T07:42:39Z
2019-08-19T05:45:21Z,42.805,6.029,13.2958,4.59952,2469.876,2019-8-19T07:45:42Z
2019-08-19T05:48:24Z,42.805,6.029,13.2956,4.59954,2469.853,2019-8-19T07:48:45Z
2019-08-19T05:51:27Z,42.805,6.029,13.2952,4.59953,2469.83,2019-8-19T07:51:48Z
2019-08-19T05:54:31Z,42.805,6.029,13.2957,4.59954,2469.867,2019-8-19T07:54:52Z
2019-08-19T05:57:34Z,42.805,6.029,13.2953,4.59954,2469.914,2019-8-19T07:57:55Z
2019-08-19T06:00:37Z,42.805,6.029,13.2954,4.59953,2469.867,2019-8-19T08:00:58Z
2019-08-19T06:03:40Z,42.805,6.029,13.2952,4.59954,2469.876,2019-8-19T08:04:01Z
2019-08-19T06:06:43Z,42.805,6.029,13.2954,4.59954,2469.89,2019-8-19T08:07:04Z
2019-08-19T06:09:47Z,42.805,6.029,13.2958,4.59958,2469.867,2019-8-19T08:10:08Z
2019-08-19T06:12:50Z,42.805,6.029,13.2956,4.59954,2469.867,2019-8-19T08:13:11Z
2019-08-19T06:15:53Z,42.805,6.029,13.2956,4.59958,2469.937,2019-8-19T08:16:14Z
2019-08-19T06:18:56Z,42.805,6.029,13.2955,4.59953,2469.9,2019-8-19T08:19:17Z
2019-08-19T06:21:59Z,42.805,6.029,13.2956,4.59954,2469.914,2019-8-19T08:22:20Z
2019-08-19T06:25:03Z,42.805,6.029,13.2958,4.59956,2469.9,2019-8-19T08:25:24Z
2019-08-19T06:28:06Z,42.805,6.029,13.2954,4.59954,2469.89,2019-8-19T08:28:27Z
2019-08-19T06:31:09Z,42.805,6.029,13.2957,4.59955,2469.914,2019-8-19T08:31:30Z
2019-08-19T06:34:12Z,42.805,6.029,13.2955,4.59964,2469.89,2019-8-19T08:34:33Z
2019-08-19T06:37:15Z,42.805,6.029,13.2954,4.59954,2469.853,2019-8-19T08:37:36Z
2019-08-19T06:40:19Z,42.805,6.029,13.2957,4.59953,2469.89,2019-8-19T08:40:40Z
2019-08-19T06:43:22Z,42.805,6.029,13.2955,4.59955,2469.909,2019-8-19T08:43:43Z
2019-08-19T06:46:25Z,42.805,6.029,13.2952,4.59954,2469.9,2019-8-19T08:46:46Z
2019-08-19T06:49:28Z,42.805,6.029,13.2957,4.59953,2469.853,2019-8-19T08:49:49Z
2019-08-19T06:52:31Z,42.805,6.029,13.2957,4.59954,2469.9,2019-8-19T08:52:52Z
2019-08-19T06:55:35Z,42.805,6.029,13.2957,4.59965,2469.914,2019-8-19T08:55:56Z
2019-08-19T06:58:38Z,42.805,6.029,13.2958,4.59954,2469.923,2019-8-19T08:58:59Z
2019-08-19T07:01:41Z,42.805,6.029,13.2957,4.59954,2469.914,2019-8-19T09:02:02Z
2019-08-19T07:04:45Z,42.805,6.029,13.2955,4.59956,2469.923,2019-8-19T09:05:06Z
2019-08-19T07:07:48Z,42.805,6.029,13.2958,4.59954,2469.937,2019-8-19T09:08:09Z
2019-08-19T07:10:51Z,42.805,6.029,13.2955,4.59954,2469.909,2019-8-19T09:11:12Z
2019-08-19T07:13:54Z,42.805,6.029,13.2954,4.59954,2469.937,2019-8-19T09:14:15Z
2019-08-19T07:16:57Z,42.805,6.029,13.2958,4.59954,2469.9,2019-8-19T09:17:18Z
2019-08-19T07:20:01Z,42.805,6.029,13.2954,4.59953,2469.9,2019-8-19T09:20:22Z
2019-08-19T07:23:04Z,42.805,6.029,13.2953,4.59955,2469.914,2019-8-19T09:23:25Z
2019-08-19T07:26:07Z,42.805,6.029,13.2952,4.59954,2469.937,2019-8-19T09:26:28Z
2019-08-19T07:29:10Z,42.805,6.029,13.2953,4.59954,2469.923,2019-8-19T09:29:31Z
2019-08-19T07:32:13Z,42.805,6.029,13.2955,4.59954,2469.947,2019-8-19T09:32:34Z
2019-08-19T07:35:17Z,42.805,6.029,13.2957,4.59952,2469.923,2019-8-19T09:35:38Z
2019-08-19T07:38:20Z,42.805,6.029,13.2955,4.59954,2469.96,2019-8-19T09:38:41Z
2019-08-19T07:41:23Z,42.805,6.029,13.2958,4.59953,2469.97,2019-8-19T09:41:44Z
2019-08-19T07:44:26Z,42.805,6.029,13.2957,4.59954,2469.96,2019-8-19T09:44:47Z
2019-08-19T07:47:30Z,42.805,6.029,13.2956,4.59953,2469.923,2019-8-19T09:47:51Z
2019-08-19T07:50:33Z,42.805,6.029,13.2957,4.59951,2469.923,2019-8-19T09:50:54Z
2019-08-19T07:53:36Z,42.805,6.029,13.2957,4.59954,2469.96,2019-8-19T09:53:57Z
2019-08-19T07:56:39Z,42.805,6.029,13.2953,4.59954,2469.937,2019-8-19T09:57:00Z
2019-08-19T07:59:42Z,42.805,6.029,13.2956,4.59956,2469.947,2019-8-19T10:00:03Z
2019-08-19T08:02:46Z,42.805,6.029,13.2957,4.59953,2469.96,2019-8-19T10:03:07Z
2019-08-19T08:05:49Z,42.805,6.029,13.2956,4.59951,2469.947,2019-8-19T10:06:10Z
2019-08-19T08:08:52Z,42.805,6.029,13.2961,4.59956,2469.947,2019-8-19T10:09:13Z
2019-08-19T08:11:55Z,42.805,6.029,13.2955,4.59954,2469.96,2019-8-19T10:12:16Z
2019-08-19T08:14:58Z,42.805,6.029,13.2953,4.59953,2469.923,2019-8-19T10:15:19Z
2019-08-19T08:18:02Z,42.805,6.029,13.2952,4.59953,2469.96,2019-8-19T10:18:23Z
2019-08-19T08:21:05Z,42.805,6.029,13.2953,4.59953,2469.947,2019-8-19T10:21:26Z
2019-08-19T08:24:08Z,42.805,6.029,13.2953,4.59953,2469.923,2019-8-19T10:24:29Z
2019-08-19T08:27:11Z,42.805,6.029,13.2953,4.59952,2469.923,2019-8-19T10:27:32Z
2019-08-19T08:30:14Z,42.805,6.029,13.2955,4.59953,2469.97,2019-8-19T10:30:35Z
2019-08-19T08:33:18Z,42.805,6.029,13.2953,4.59955,2469.947,2019-8-19T10:33:39Z
2019-08-19T08:36:21Z,42.805,6.029,13.2953,4.59954,2469.984,2019-8-19T10:36:42Z
2019-08-19T08:39:24Z,42.805,6.029,13.2957,4.59954,2469.947,2019-8-19T10:39:45Z
2019-08-19T08:42:27Z,42.805,6.029,13.2957,4.59952,2469.96,2019-8-19T10:42:48Z
2019-08-19T08:45:30Z,42.805,6.029,13.2953,4.59955,2469.96,2019-8-19T10:45:51Z
2019-08-19T08:48:34Z,42.805,6.029,13.2956,4.59954,2469.937,2019-8-19T10:48:55Z
2019-08-19T08:51:37Z,42.805,6.029,13.2956,4.59953,2469.947,2019-8-19T10:51:58Z
2019-08-19T08:54:40Z,42.805,6.029,13.2954,4.59955,2470.007,2019-8-19T10:55:01Z
2019-08-19T08:57:44Z,42.805,6.029,13.2955,4.59922,2469.947,2019-8-19T10:58:05Z
2019-08-19T09:00:47Z,42.805,6.029,13.2953,4.59953,2469.984,2019-8-19T11:01:08Z
2019-08-19T09:03:50Z,42.805,6.029,13.2952,4.59961,2469.97,2019-8-19T11:04:11Z
2019-08-19T09:06:53Z,42.805,6.029,13.2952,4.59952,2469.947,2019-8-19T11:07:14Z
2019-08-19T09:09:56Z,42.805,6.029,13.2954,4.59953,2470.007,2019-8-19T11:10:17Z
2019-08-19T09:13:00Z,42.805,6.029,13.2955,4.59955,2469.947,2019-8-19T11:13:21Z
2019-08-19T09:16:03Z,42.805,6.029,13.2956,4.59952,2469.96,2019-8-19T11:16:24Z
2019-08-19T09:19:06Z,42.805,6.029,13.2950,4.59954,2469.947,2019-8-19T11:19:27Z
2019-08-19T09:22:09Z,42.805,6.029,13.2957,4.59953,2469.984,2019-8-19T11:22:30Z
2019-08-19T09:25:12Z,42.805,6.029,13.2957,4.59955,2469.984,2019-8-19T11:25:33Z
2019-08-19T09:28:16Z,42.805,6.029,13.2957,4.59952,2469.947,2019-8-19T11:28:37Z
2019-08-19T09:31:19Z,42.805,6.029,13.2953,4.59955,2469.97,2019-8-19T11:31:40Z
2019-08-19T09:34:22Z,42.805,6.029,13.2957,4.59954,2469.933,2019-8-19T11:34:43Z
2019-08-19T09:37:25Z,42.805,6.029,13.2953,4.59953,2469.937,2019-8-19T11:37:46Z
2019-08-19T09:40:29Z,42.805,6.029,13.2953,4.59954,2469.97,2019-8-19T11:40:50Z
2019-08-19T09:43:32Z,42.805,6.029,13.2953,4.59958,2469.96,2019-8-19T11:43:53Z
2019-08-19T09:46:35Z,42.805,6.029,13.2958,4.59956,2469.96,2019-8-19T11:46:56Z
2019-08-19T09:49:38Z,42.805,6.029,13.2953,4.59953,2469.993,2019-8-19T11:49:59Z
2019-08-19T09:52:41Z,42.805,6.029,13.2954,4.59954,2469.96,2019-8-19T11:53:02Z
2019-08-19T09:55:45Z,42.805,6.029,13.2953,4.59953,2469.984,2019-8-19T11:56:06Z
2019-08-19T09:58:48Z,42.805,6.029,13.2954,4.59960,2469.97,2019-8-19T11:59:09Z
2019-08-19T10:01:51Z,42.805,6.029,13.2958,4.59954,2469.947,2019-8-19T12:02:12Z
2019-08-19T10:04:54Z,42.805,6.029,13.2959,4.59954,2469.9,2019-8-19T12:05:15Z
2019-08-19T10:07:58Z,42.805,6.029,13.2955,4.59955,2469.97,2019-8-19T12:08:19Z
2019-08-19T10:11:01Z,42.805,6.029,13.2957,4.59954,2469.923,2019-8-19T12:11:22Z
2019-08-19T10:14:04Z,42.805,6.029,13.2956,4.59961,2469.947,2019-8-19T12:14:25Z
2019-08-19T10:17:07Z,42.805,6.029,13.2960,4.59953,2469.97,2019-8-19T12:17:28Z
2019-08-19T10:20:11Z,42.805,6.029,13.2953,4.59954,2469.96,2019-8-19T12:20:32Z
2019-08-19T10:23:14Z,42.805,6.029,13.2953,4.59953,2469.947,2019-8-19T12:23:35Z
2019-08-19T10:26:17Z,42.805,6.029,13.2958,4.59956,2469.937,2019-8-19T12:26:38Z
2019-08-19T10:29:20Z,42.805,6.029,13.2963,4.59954,2469.937,2019-8-19T12:29:41Z
2019-08-19T10:32:23Z,42.805,6.029,13.2952,4.59952,2469.97,2019-8-19T12:32:44Z
2019-08-19T10:35:26Z,42.805,6.029,13.2957,4.59952,2469.96,2019-8-19T12:35:47Z
2019-08-19T10:38:30Z,42.805,6.029,13.2957,4.59952,2469.923,2019-8-19T12:38:51Z
2019-08-19T10:41:33Z,42.805,6.029,13.2955,4.59953,2469.937,2019-8-19T12:41:54Z
2019-08-19T10:44:36Z,42.805,6.029,13.2957,4.59954,2469.923,2019-8-19T12:44:57Z
2019-08-19T10:47:39Z,42.805,6.029,13.2957,4.59954,2469.96,2019-8-19T12:48:00Z
2019-08-19T10:50:43Z,42.805,6.029,13.2957,4.59952,2469.923,2019-8-19T12:51:04Z
2019-08-19T10:53:46Z,42.805,6.029,13.2955,4.59951,2469.974,2019-8-19T12:54:07Z
2019-08-19T10:56:49Z,42.805,6.029,13.2953,4.59952,2469.923,2019-8-19T12:57:10Z
2019-08-19T10:59:52Z,42.805,6.029,13.2952,4.59953,2469.923,2019-8-19T13:00:13Z
2019-08-19T11:02:56Z,42.805,6.029,13.2956,4.59953,2469.923,2019-8-19T13:03:17Z
2019-08-19T11:05:59Z,42.805,6.029,13.2957,4.59952,2469.914,2019-8-19T13:06:20Z
2019-08-19T11:09:02Z,42.805,6.029,13.2957,4.59952,2469.923,2019-8-19T13:09:23Z
2019-08-19T11:12:05Z,42.805,6.029,13.2953,4.59952,2469.951,2019-8-19T13:12:26Z
2019-08-19T11:15:08Z,42.805,6.029,13.2956,4.59953,2469.9,2019-8-19T13:15:29Z
2019-08-19T11:18:12Z,42.805,6.029,13.2956,4.59951,2469.9,2019-8-19T13:18:33Z
2019-08-19T11:21:15Z,42.805,6.029,13.2957,4.59951,2469.9,2019-8-19T13:21:36Z
2019-08-19T11:24:18Z,42.805,6.029,13.2953,4.59952,2469.914,2019-8-19T13:24:39Z
2019-08-19T11:27:21Z,42.805,6.029,13.2960,4.59953,2469.876,2019-8-19T13:27:42Z
2019-08-19T11:30:25Z,42.805,6.029,13.2955,4.59952,2469.89,2019-8-19T13:30:46Z
2019-08-19T11:33:28Z,42.805,6.029,13.2954,4.59951,2469.876,2019-8-19T13:33:49Z
2019-08-19T11:36:31Z,42.805,6.029,13.2956,4.59960,2469.9,2019-8-19T13:36:52Z
2019-08-19T11:39:34Z,42.805,6.029,13.2957,4.59953,2469.923,2019-8-19T13:39:55Z
2019-08-19T11:42:38Z,42.805,6.029,13.2958,4.59953,2469.876,2019-8-19T13:42:59Z
2019-08-19T11:45:41Z,42.805,6.029,13.2953,4.59951,2469.96,2019-8-19T13:46:02Z
2019-08-19T11:48:44Z,42.805,6.029,13.2954,4.59954,2469.9,2019-8-19T13:49:05Z
2019-08-19T11:51:47Z,42.805,6.029,13.2959,4.59954,2469.853,2019-8-19T13:52:08Z
2019-08-19T11:54:50Z,42.805,6.029,13.2958,4.59952,2469.876,2019-8-19T13:55:11Z
2019-08-19T11:57:54Z,42.805,6.029,13.2958,4.59952,2469.89,2019-8-19T13:58:15Z
2019-08-19T12:00:57Z,42.805,6.029,13.2952,4.59954,2469.876,2019-8-19T14:01:18Z
2019-08-19T12:04:00Z,42.805,6.029,13.2957,4.59953,2469.876,2019-8-19T14:04:21Z
2019-08-19T12:07:03Z,42.805,6.029,13.2956,4.59954,2469.89,2019-8-19T14:07:24Z
2019-08-19T12:10:07Z,42.805,6.029,13.2960,4.59954,2469.89,2019-8-19T14:10:28Z
2019-08-19T12:13:10Z,42.805,6.029,13.2958,4.59956,2469.867,2019-8-19T14:13:31Z
2019-08-19T12:16:13Z,42.805,6.029,13.2956,4.59954,2469.876,2019-8-19T14:16:34Z
2019-08-19T12:19:16Z,42.805,6.029,13.2953,4.59954,2469.914,2019-8-19T14:19:37Z
2019-08-19T12:22:20Z,42.805,6.029,13.2957,4.59954,2469.914,2019-8-19T14:22:41Z
2019-08-19T12:25:23Z,42.805,6.029,13.2955,4.59954,2469.876,2019-8-19T14:25:44Z
2019-08-19T12:28:26Z,42.805,6.029,13.2955,4.59954,2469.867,2019-8-19T14:28:47Z
2019-08-19T12:31:29Z,42.805,6.029,13.2955,4.59952,2469.853,2019-8-19T14:31:50Z
2019-08-19T12:34:32Z,42.805,6.029,13.2954,4.59958,2469.867,2019-8-19T14:34:53Z
2019-08-19T12:37:36Z,42.805,6.029,13.2953,4.59957,2469.876,2019-8-19T14:37:57Z
2019-08-19T12:40:39Z,42.805,6.029,13.2954,4.59954,2469.89,2019-8-19T14:41:00Z
2019-08-19T12:43:42Z,42.805,6.029,13.2959,4.59954,2469.853,2019-8-19T14:44:03Z
2019-08-19T12:46:45Z,42.805,6.029,13.2957,4.59954,2469.937,2019-8-19T14:47:06Z
2019-08-19T12:49:49Z,42.805,6.029,13.2955,4.59958,2469.853,2019-8-19T14:50:10Z
2019-08-19T12:52:52Z,42.805,6.029,13.2957,4.59951,2469.867,2019-8-19T14:53:13Z
2019-08-19T12:55:55Z,42.805,6.029,13.2952,4.59952,2469.844,2019-8-19T14:56:16Z
2019-08-19T12:58:58Z,42.805,6.029,13.2956,4.59951,2469.853,2019-8-19T14:59:19Z
2019-08-19T13:02:01Z,42.805,6.029,13.2956,4.59952,2469.89,2019-8-19T15:02:22Z
2019-08-19T13:05:05Z,42.805,6.029,13.2957,4.59951,2469.83,2019-8-19T15:05:26Z
2019-08-19T13:08:08Z,42.805,6.029,13.2957,4.59952,2469.844,2019-8-19T15:08:29Z
2019-08-19T13:11:11Z,42.805,6.029,13.2958,4.59952,2469.821,2019-8-19T15:11:32Z
2019-08-19T13:14:14Z,42.805,6.029,13.2957,4.59952,2469.867,2019-8-19T15:14:35Z
2019-08-19T13:17:17Z,42.805,6.029,13.2955,4.59958,2469.844,2019-8-19T15:17:38Z
2019-08-19T13:20:21Z,42.805,6.029,13.2957,4.59953,2469.867,2019-8-19T15:20:42Z
2019-08-19T13:23:24Z,42.805,6.029,13.2954,4.59954,2469.89,2019-8-19T15:23:45Z
2019-08-19T13:26:27Z,42.805,6.029,13.2956,4.59952,2469.83,2019-8-19T15:26:48Z
2019-08-19T13:29:30Z,42.805,6.029,13.2964,4.59951,2469.844,2019-8-19T15:29:51Z
2019-08-19T13:32:33Z,42.805,6.029,13.2954,4.59954,2469.806,2019-8-19T15:32:54Z
2019-08-19T13:35:37Z,42.805,6.029,13.2958,4.59955,2469.867,2019-8-19T15:35:58Z
2019-08-19T13:38:40Z,42.805,6.029,13.2958,4.59952,2469.83,2019-8-19T15:39:01Z
2019-08-19T13:41:43Z,42.805,6.029,13.2958,4.59953,2469.83,2019-8-19T15:42:04Z
2019-08-19T13:44:46Z,42.805,6.029,13.2958,4.59953,2469.876,2019-8-19T15:45:07Z
2019-08-19T13:47:49Z,42.805,6.029,13.2953,4.59953,2469.83,2019-8-19T15:48:10Z
2019-08-19T13:50:53Z,42.805,6.029,13.2956,4.59952,2469.844,2019-8-19T15:51:14Z
2019-08-19T13:53:56Z,42.805,6.029,13.2957,4.59954,2469.83,2019-8-19T15:54:17Z
2019-08-19T13:56:59Z,42.805,6.029,13.2956,4.59952,2469.83,2019-8-19T15:57:20Z
2019-08-19T14:00:02Z,42.805,6.029,13.2957,4.59953,2469.83,2019-8-19T16:00:23Z
2019-08-19T14:03:05Z,42.805,6.029,13.2956,4.59953,2469.806,2019-8-19T16:03:27Z
2019-08-19T14:06:09Z,42.805,6.029,13.2953,4.59951,2469.844,2019-8-19T16:06:30Z
2019-08-19T14:09:12Z,42.805,6.029,13.2957,4.59951,2469.806,2019-8-19T16:09:33Z
2019-08-19T14:12:15Z,42.805,6.029,13.2964,4.59955,2469.844,2019-8-19T16:12:36Z
2019-08-19T14:15:18Z,42.805,6.029,13.2958,4.59955,2469.806,2019-8-19T16:15:39Z
2019-08-19T14:18:21Z,42.805,6.029,13.2956,4.59958,2469.844,2019-8-19T16:18:42Z
2019-08-19T14:21:25Z,42.805,6.029,13.2964,4.59953,2469.816,2019-8-19T16:21:46Z
2019-08-19T14:24:28Z,42.805,6.029,13.2958,4.59953,2469.844,2019-8-19T16:24:49Z
2019-08-19T14:27:31Z,42.805,6.029,13.2953,4.59952,2469.83,2019-8-19T16:27:52Z
2019-08-19T14:30:34Z,42.805,6.029,13.2958,4.59957,2469.844,2019-8-19T16:30:55Z
2019-08-19T14:33:37Z,42.805,6.029,13.2957,4.59958,2469.867,2019-8-19T16:33:58Z
2019-08-19T14:36:41Z,42.805,6.029,13.2953,4.59953,2469.844,2019-8-19T16:37:02Z
2019-08-19T14:39:44Z,42.805,6.029,13.2957,4.59956,2469.821,2019-8-19T16:40:05Z
2019-08-19T14:42:47Z,42.805,6.029,13.2958,4.59952,2469.806,2019-8-19T16:43:08Z
2019-08-19T14:45:50Z,42.805,6.029,13.2956,4.59956,2469.844,2019-8-19T16:46:11Z
2019-08-19T14:48:53Z,42.805,6.029,13.2958,4.59956,2469.806,2019-8-19T16:49:14Z
2019-08-19T14:51:57Z,42.805,6.029,13.2956,4.59952,2469.844,2019-8-19T16:52:18Z
2019-08-19T14:55:00Z,42.805,6.029,13.2954,4.59954,2469.83,2019-8-19T16:55:21Z
2019-08-19T14:58:03Z,42.805,6.029,13.2955,4.59952,2469.821,2019-8-19T16:58:24Z
2019-08-19T15:01:06Z,42.805,6.029,13.2956,4.59953,2469.783,2019-8-19T17:01:27Z
2019-08-19T15:04:09Z,42.805,6.029,13.2956,4.59954,2469.806,2019-8-19T17:04:30Z
2019-08-19T15:07:13Z,42.805,6.029,13.2954,4.59953,2469.83,2019-8-19T17:07:34Z
2019-08-19T15:10:16Z,42.805,6.029,13.2958,4.59953,2469.806,2019-8-19T17:10:37Z
2019-08-19T15:13:19Z,42.805,6.029,13.2957,4.59955,2469.821,2019-8-19T17:13:40Z